Regional Weather Roundup
Issued by NWS

Home | Current Version | Previous Version | Text Only | Print | Product List | Glossary On
Versions: 1 2 3 4 5 6 7 8 9 10 11 12 13 14 15 16 17 18 19 20 21 22 23 24 25 26 27 28 29 30 31 32 33 34 35 36 37 38 39 40 41 42 43 44 45 46 47 48 49 50
000
ASUS44 KFWD 290615
RWRTX
NORTH TEXAS HOURLY WEATHER ROUNDUP
NATIONAL WEATHER SERVICE FORT WORTH TX
100 AM CDT MON MAY 29 2017

NOTE: "FAIR" INDICATES FEW OR NO CLOUDS BELOW 12,000 FEET WITH NO
SIGNIFICANT WEATHER AND/OR OBSTRUCTIONS TO VISIBILITY.

TXZ118-119-290700-
DALLAS/FORT WORTH METROPLEX

CITY           SKY/WX    TMP DP  RH WIND       PRES   REMARKS
DFW AIRPORT    CLOUDY    74  69  85 CALM      30.02S
6HR MIN TEMP:  72; 6HR MAX TEMP:  79;

DALLAS LOVE    CLOUDY    74  69  85 SW3       30.03S
6HR MIN TEMP:  74; 6HR MAX TEMP:  79;

FTW MEACHAM    CLOUDY    71  68  90 N5        30.03F
6HR MIN TEMP:  71; 6HR MAX TEMP:  79;

DAL-EXECUTIVE  CLOUDY    70  69  97 CALM      30.03F
6HR MIN TEMP:  70; 6HR MAX TEMP:  77;

FTW-ALLIANCE   CLOUDY    67  65  93 CALM      30.04S
6HR MIN TEMP:  67; 6HR MAX TEMP:  79;

FTW-NAS-JRB    CLOUDY    73  68  84 NW5       30.04S
6HR MIN TEMP:  73; 6HR MAX TEMP:  78;

FTW-SPINKS     CLOUDY    69  67  91 CALM      30.05S
6HR MIN TEMP:  69; 6HR MAX TEMP:  78;

ARLINGTON      CLOUDY    70  67  90 CALM      30.04F
6HR MIN TEMP:  70; 6HR MAX TEMP:  78;

GRAND PRAIRIE  MOCLDY    73  67  83 CALM      30.05S
6HR MIN TEMP:  73; 6HR MAX TEMP:  78;

ADDISON        MOCLDY    72  68  88 CALM      30.06S
6HR MIN TEMP:  71; 6HR MAX TEMP:  77;

MESQUITE       MOCLDY    70  69  97 CALM      30.03F
6HR MIN TEMP:  70; 6HR MAX TEMP:  75;

LANCASTER      CLOUDY    69  68  95 CALM      30.04R
6HR MIN TEMP:  69; 6HR MAX TEMP:  75;

$$

TXZ091>094-102>105-117-120-121-131>134-290700-
NORTH CENTRAL TEXAS

CITY           SKY/WX    TMP DP  RH WIND       PRES   REMARKS
SHRMAN/DENISON CLOUDY    67  63  86 CALM      30.04F
6HR MIN TEMP:  67; 6HR MAX TEMP:  78;

GAINESVILLE    CLOUDY    67  62  85 CALM      30.07S
6HR MIN TEMP:  67; 6HR MAX TEMP:  78;

BOWIE          CLOUDY    66  66  99 CALM      30.06S
6HR MIN TEMP:  66; 6HR MAX TEMP:  81;

BRIDGEPORT     CLOUDY    65  65  97 CALM      30.07S
6HR MIN TEMP:  65; 6HR MAX TEMP:  78;

DECATUR        CLOUDY    69  64  83 E5        30.06S
6HR MIN TEMP:  69; 6HR MAX TEMP:  77;

DENTON         CLOUDY    67  65  93 CALM      30.04R
6HR MIN TEMP:  67; 6HR MAX TEMP:  79;

MCKINNEY       CLOUDY    68  67  96 CALM      30.03S
6HR MIN TEMP:  67; 6HR MAX TEMP:  79;

BONHAM         CLOUDY    64  63  94 N5        30.02F
GREENVILLE     CLOUDY    72  70  94 CALM      30.03R
ROCKWALL       MOCLDY    71  71 100 SW3       30.03S
6HR MIN TEMP:  70; 6HR MAX TEMP:  77;

TERRELL        CLOUDY    70  68  93 CALM      30.03F
6HR MIN TEMP:  70; 6HR MAX TEMP:  74; 6HR PCP: TRACE;

WAXAHACHIE     CLOUDY    69  69 100 CALM      30.04S
6HR MIN TEMP:  69; 6HR MAX TEMP:  75;

CLEBURNE       CLOUDY    70  70 100 NE3       30.05R
GRANBURY       CLOUDY    69  65  88 CALM      30.06R
6HR MIN TEMP:  69; 6HR MAX TEMP:  78;

$$

TXZ083>090-098>101-113>116-127>130-139>142-154-155-290700-
WESTERN NORTH TEXAS

CITY           SKY/WX    TMP DP  RH WIND       PRES   REMARKS
WICHITA FALLS  CLOUDY    66  54  65 CALM      30.06S
6HR MIN TEMP:  65; 6HR MAX TEMP:  83;

WF-KICKAPOO    CLOUDY    67  57  69 S5        30.09R
6HR MIN TEMP:  67; 6HR MAX TEMP:  84;

VERNON         CLEAR     67  39  35 CALM      30.09S
6HR MIN TEMP:  65; 6HR MAX TEMP: 102;

ABILENE        CLOUDY    64  63  96 E5        30.10R
ABILENE-DYESS  CLOUDY    64  62  93 CALM      30.09R
6HR MIN TEMP:  64; 6HR MAX TEMP:  75; 6HR PCP: TRACE;

GRAHAM         CLOUDY    66  61  84 CALM      30.05S
6HR MIN TEMP:  66; 6HR MAX TEMP:  81;

BRECKENRIDGE   CLOUDY    67  64  90 CALM      30.07R
6HR MIN TEMP:  67; 6HR MAX TEMP:  78;

CISCO          CLOUDY    66  64  94 CALM      30.08S
EASTLAND       CLOUDY    64  62  96 CALM      30.07S
6HR MIN TEMP:  63; 6HR MAX TEMP:  74;

RANGER         CLOUDY   N/A N/A N/A CALM      30.08R
MINERAL WELLS  CLOUDY    67  64  90 CALM      30.04S
6HR MIN TEMP:  67; 6HR MAX TEMP:  77;

STEPHENVILLE   CLOUDY    69  65  88 CALM      30.08S
6HR MIN TEMP:  69; 6HR MAX TEMP:  73;

COMANCHE       CLOUDY    68  68 100 CALM      30.06R
6HR MIN TEMP:  68; 6HR MAX TEMP:  72;

BROWNWOOD      CLOUDY    68  64  88 N5        30.05S
COLEMAN        CLOUDY    69  62  80 N5        30.07R
6HR MIN TEMP:  69; 6HR MAX TEMP:  76;

$$

TXZ143>147-156>162-174-175-290700-
CENTRAL TEXAS

CITY           SKY/WX    TMP DP  RH WIND       PRES   REMARKS
WACO           CLOUDY    71  70  96 N12       29.98F
6HR MIN TEMP:  70; 6HR MAX TEMP:  77; 6HR PCP:  0.33;

WACO-MCGREGOR  CLOUDY    70  69  97 N9        29.99F
6HR MIN TEMP:  68; 6HR MAX TEMP:  77; 6HR PCP:  0.84;

HILLSBORO      CLOUDY    71  70  96 N9        30.02R
6HR MIN TEMP:  71; 6HR MAX TEMP:  76; 6HR PCP:  0.08;

CORSICANA      CLOUDY    72  71  97 CALM      30.03F
6HR MIN TEMP:  72; 6HR MAX TEMP:  76; 6HR PCP:  0.91;

MEXIA          CLOUDY    70  69  98 NW7       30.00R
6HR MIN TEMP:  70; 6HR MAX TEMP:  75; 6HR PCP:  0.14;

HEARNE         CLOUDY    68  68 100 CALM      29.98R
6HR MIN TEMP:  68; 6HR MAX TEMP:  75; 6HR PCP:  0.61;

CAMERON        CLOUDY    69  66  93 N9        29.94F
6HR MIN TEMP:  69; 6HR MAX TEMP:  76; 6HR PCP:  0.52;

TEMPLE         CLOUDY    68  67  96 NW6       29.99R
6HR MIN TEMP:  67; 6HR MAX TEMP:  76; 6HR PCP:  0.77;

KILLEEN        CLOUDY    68  67  97 CALM      30.00R
6HR MIN TEMP:  67; 6HR MAX TEMP:  74; 6HR PCP: TRACE;

KILLEEN-SKYLRK CLOUDY    68  67  96 CALM      30.01R
6HR MIN TEMP:  68; 6HR MAX TEMP:  76;

FORT HOOD      CLOUDY    67  66  98 CALM      29.97S
6HR MIN TEMP:  67; 6HR MAX TEMP:  75; 6HR PCP:  0.04;

HAMILTON       CLOUDY    69  69 100 N3        30.03F
6HR MIN TEMP:  68; 6HR MAX TEMP:  74;

LAMPASAS       CLOUDY    71  70  97 CALM      30.01R
6HR MIN TEMP:  65; 6HR MAX TEMP:  76; 6HR PCP:  1.43;

$$

TXZ095>097-106>112-122>126-135>138-148>153-164>167-290700-
EAST TEXAS

CITY           SKY/WX    TMP DP  RH WIND       PRES   REMARKS
PARIS          CLOUDY    66  63  88 N6        30.02S
6HR MIN TEMP:  66; 6HR MAX TEMP:  79;

SULPHUR SPRNGS CLOUDY    70  70  99 CALM      30.04S
6HR MIN TEMP:  70; 6HR MAX TEMP:  76;

MOUNT PLEASANT   N/A     69  69 100 CALM      30.03R VSB 3/4
6HR MIN TEMP:  69; 6HR MAX TEMP:  73; 6HR PCP:  0.09;

GILMER         CLOUDY    68  67  96 CALM      30.03S
6HR MIN TEMP:  68; 6HR MAX TEMP:  71; 6HR PCP:  0.01;

MINEOLA        CLOUDY    70  70 100 CALM      30.03R
TYLER          CLOUDY    70  70 100 S7        30.03F
6HR MIN TEMP:  69; 6HR MAX TEMP:  71; 6HR PCP:  0.01;

LONGVIEW       CLOUDY   N/A N/A N/A S3        30.01S
                                      6HR PCP:  0.01;

MARSHALL       CLOUDY    65  63  92 S5        30.04R
ATHENS         LGT RAIN  68  68 100 CALM      30.02F
PALESTINE      LGT RAIN  70  70 100 N5        30.01F
JACKSONVILLE   CLOUDY    67  67 100 S6        30.03F
HENDERSON      CLOUDY   N/A N/A N/A SW3       30.04S
                                      6HR PCP:  0.04;

CENTER         LGT RAIN  71  69  95 SE9G16    30.02F
6HR MIN TEMP:  69; 6HR MAX TEMP:  71; 6HR PCP:  0.03;

NACOGDOCHES    CLOUDY    68  64  88 SW14      30.04R
6HR MIN TEMP:  66; 6HR MAX TEMP:  70; 6HR PCP:  2.12;

LUFKIN         TSTM      68  67  96 VRB3      30.08R
6HR MIN TEMP:  66; 6HR MAX TEMP:  83; 6HR PCP:  1.17;

$$

SUPPLEMENTAL OBSERVATIONS (NWS FORT WORTH AREA)

CITY           SKY/WX    TMP DP  RH WIND       PRES   REMARKS
DENISON DAM      N/A     72  63  73 CALM        N/A



USA.gov is the U.S. government's official web portal to all federal, state and local government web resources and services.